{"data":{"norad_id":63672,"intl_designator":"2025-085J","name":"STARLINK-11644 [DTC]","alt_names":[],"object_type":"PAYLOAD","status":"ACTIVE","operator":null,"country":"US","launch_date":"2025-04-28","launch_site_code":"AFETR","launch_vehicle":null,"mission":null,"orbit_class":"UNKNOWN","rcs_meters":null,"size_class":null,"mass_kg":null,"dimensions":null,"purposes":["comms"],"wikipedia_slug":null,"has_3d_model":false,"image_url":null,"decayed_at":null,"tle_current":{"epoch":"2026-05-24T19:28:45.278688Z","epoch_age_seconds":91633,"freshness":"FRESH","line1":"1 63672U 25085J   26144.81163517  .00246442  00000+0  18637-2 0  9991","line2":"2 63672  42.9998 179.5962 0001292  66.0465 294.0538 15.70891187 62216","mean_motion":15.70891187,"eccentricity":0.0001292,"inclination_deg":42.9998,"raan_deg":179.5962,"arg_perigee_deg":66.0465,"mean_anomaly_deg":294.0538,"bstar":0.0018637,"rev_number":6221,"period_min":91.667711418639,"perigee_km":355.47866795479,"apogee_km":357.21885907609,"semimajor_km":6734.4857635154,"source":"CELESTRAK","updated_at":"2026-05-25T13:38:20.091753Z"}}}